Find Starlink 5161

NORAD ID: 54163 Int'l Des: 2022-141 Owner: SPXS Country: US Constellation: starlink operational
LEOCIRCULAR

Live Position

Loading 3D Globe...

About Starlink 5161

Description loading...

Upcoming Passes

Passes for default location (London). Set your location on the main map for personalized predictions.

Altitude History

Loading altitude history...

Two-Line Element Set

1 54163U 22141G 26121.73758201 .00000724 00000-0 63583-4 0 9996
2 54163 53.2169 126.1474 0001228 74.8367 285.2760 15.08841864193862
Epoch: May 1, 2026 • Age: 19 hours

Current Status

Altitude 543.4 km
Velocity 7.59 km/s
Sub-Earth Point -13.58°S, 61.23°E
Launch Date Oct 28, 2022
Age 3.5 years
Type internet

Technical Details

Classification Payload
Mass 305.00 kg
Dry Mass 290.00 kg
Total Mass 305.00 kg
Length 0.20 m
Diameter 2.80 m
Span 9.00 m
Shape Box + pan
Manufacturer SPXS
Bus Type Starlink
Phase Status In Orbit
Owner/State SPXS/US

Most Searched